GW0766 Weather Reports


Display with metric or nautical units.
time (UTC)temp
F
wind
direction
speed
MPH
gust
MPH
rain 1hr
in
rain 24hr
in
rain mn
in
humidity
%
barometer
mb
20260903051707 76 257 0.0 0.0 0.00 0.00 0.00 67 992.2
20260903035913 66 177 0.0 3.0 0.00 0.00 0.00 66 1013.6
20260903031156 75 250 0.0 1.0 0.00 0.00 0.00 74 992.0
20260903025911 66 180 0.0 0.0 0.00 0.00 0.00 63 1013.7
20260903015856 66 180 0.0 2.0 0.00 0.00 0.00 61 1013.9
20260903011526 77 278 0.0 0.0 0.00 0.00 0.00 76 992.6
20260903001039 77 290 0.0 0.0 0.00 0.00 0.00 83 992.9
20260902235914 69 180 0.0 1.0 0.00 0.00 0.00 56 1014.1
20260902221251 79 283 0.0 0.0 0.00 0.00 0.00 79 993.3
20260902215920 73 180 0.0 3.0 0.00 0.00 0.00 49 1014.1
20260902211211 80 183 1.0 4.0 0.00 0.00 0.00 85 993.4
20260902205855 76 180 0.0 0.0 0.00 0.00 0.00 46 1014.0
20260902201053 81 326 0.0 0.0 0.00 0.00 0.00 73 993.6
20260902185916 82 180 1.0 3.0 0.00 0.00 0.00 43 1013.8
20260902181554 82 76 0.0 0.0 0.00 0.00 0.00 78 992.7
20260902171103 83 10 0.0 0.0 0.00 0.00 0.00 72 992.6
20260902165913 90 213 3.0 10.0 0.00 0.00 0.00 38 1013.2
20260902155906 92 202 4.0 11.0 0.00 0.00 0.00 38 1013.0
20260902151250 86 51 3.0 6.0 0.00 0.00 0.00 70 993.0
20260902145905 94 229 3.0 12.0 0.00 0.00 0.00 37 1013.3
20260902141140 87 93 2.0 9.0 0.00 0.00 0.00 67 993.2
20260902135905 96 242 6.0 14.0 0.00 0.00 0.00 36 1013.5
20260902121144 88 107 2.0 8.0 0.00 0.00 0.00 60 994.1
20260902115857 94 351 2.0 8.0 0.00 0.00 0.00 37 1014.9
20260902105858 91 17 2.0 5.0 0.00 0.00 0.00 44 1015.5
20260902101626 88 69 2.0 6.0 0.00 0.00 0.00 61 994.7
20260902091559 86 77 3.0 7.0 0.00 0.00 0.00 63 994.4
20260902085905 84 5 2.0 4.0 0.00 0.00 0.00 59 1015.8
20260902081158 86 44 2.0 7.0 0.00 0.00 0.00 66 994.1
20260902065912 71 27 0.0 3.0 0.00 0.00 0.00 73 1015.4
20260902061242 81 259 0.0 0.0 0.00 0.00 0.00 54 993.3
20260902055900 66 159 0.0 1.0 0.00 0.00 0.00 73 1014.8